Powrót do katalogu

STARLINK-6350

AktywnyŁącznośćVLEO
NORAD 57226·PAYLOAD·🇺🇸 United States

Wystrzelony Jul 7, 2023 z Vandenberg Space Force Base

Loading…

Następne Przeloty (najbliższe 24 godziny)

TLE

ŚwieżeSource: CelesTrak SupGP

Epoka: Sep 14, 2026, 20:41 UTC

1 57226C 23094J   26257.86229167  .00057232  00000+0  20727-2 0  2578
2 57226  43.0048  42.5935 0001989 278.3522 109.5354 15.27552307    12

Śledź STARLINK-6350 w czasie rzeczywistym z AllMySat

Download on the App Store